Погода в Карджине

Россия / Республика Северная Осетия — Алания     43°15′57″N   44°17′31″E
темп.,
°C
ветер,
м/с
пор.,
м/с
влажн.,
%
обл.,
%
осадки,
мм/ч
давл.,
гПа
погр.,
м
19 сентября, вс
вс1900:00+13в119093 0.0 101618
03:00+12ссз01920 0.0 101611
06:00+12ююв1193100 0.0 101610
09:00+18св1167100 0.0 1015455
12:00+23с224877 0.0 10131183
15:00+25св124383 0.0 10121629
18:00+21в2257100 0.0 101222
21:00+17в2468100 0.0 1013109
20 сентября, пн
пн2000:00+15зсз117548 0.0 101312
03:00+14юз118019 0.0 101410
06:00+13ююз11814 0.0 101411
09:00+20ссз115650 0.0 1014358
12:00+25с3345100 0.0 10131257
15:00+26ссв433937 0.0 10121914
18:00+19всв227198 1.1 101437
21:00+17ю11758 2.0 101511
21 сентября, вт
вт2100:00+16зсз11804 0.0 101512
03:00+14з22932 0.0 101613
06:00+13з11925 0.0 101710
09:00+19с22732 0.0 1017560
12:00+23с225237 0.0 10141348
15:00+24ссз3348100 0.0 10131257
18:00+21ссв1254100 0.0 101224
21:00+17ююв126691 0.0 101213
22 сентября, ср
ср2200:00+16зсз1175100 0.0 101111
03:00+15сз4790100 0.0 1013334
06:00+14ссз2391100 0.0 1014350
09:00+14ссз2286100 0.0 1014414
12:00+15с2281100 0.2 1013531
15:00+15с2181100 0.3 1012467
18:00+13с2293100 0.8 1012179
21:00+14с1292100 0.8 1012153
23 сентября, чт
чт2300:00+13с1194100 0.1 1011139
03:00+13зсз2297100 0.4 1010205
06:00+13зсз2496100 0.6 1010320
09:00+13зсз1294100 1.0 1010247
12:00+14сз2295100 0.2 1009418
15:00+13зсз3396100 0.4 1009378
18:00+12зюз0195100 1.8 1008102
21:00+13ссз1295100 3.6 1006100